Overview Statistics Trail Chart Weather Telemetry Raw packets
 

This is the latest recevied weather packets stored in our database for station/object IZ5MJO-13. If no packets are shown the sender has not sent any weather packets the latest 10 day(s).

<< 1 2 3 4 5 6 7 >>
Time Temp. Humidity Pressure Rain* Wind** Luminosity Snow
1788546025 26.67° C 40% 1008.8 hPa - - - -
1788545125 27.22° C 39% 1008.7 hPa - - - -
1788544231 28.33° C 37% 1008.5 hPa - - - -
1788543331 30° C 35% 1008.5 hPa - - - -
1788542431 31.11° C 33% 1008.5 hPa - - - -
1788541530 32.78° C 30% 1008.6 hPa - - - -
1788540630 34.44° C 29% 1008.5 hPa - - - -
1788540111 37.22° C 32% 1009.4 hPa - - - -
1788539729 34.44° C 28% 1008.5 hPa - - - -
1788538829 34.44° C 29% 1008.5 hPa - - - -
1788537928 35.56° C 28% 1008.6 hPa - - - -
1788537028 35.56° C 29% 1008.5 hPa - - - -
1788536128 35.56° C 28% 1008.6 hPa - - - -
1788535228 35.56° C 28% 1008.7 hPa - - - -
1788534327 36.67° C 28% 1008.6 hPa - - - -
1788533427 37.78° C 28% 1008.7 hPa - - - -
1788532526 37.78° C 25% 1008.7 hPa - - - -
1788531626 38.33° C 26% 1008.8 hPa - - - -
1788530726 38.33° C 26% 1008.8 hPa - - - -
1788529826 38.33° C 26% 1008.9 hPa - - - -
1788528925 37.78° C 30% 1009.1 hPa - - - -
1788528526 36.67° C 29% 1009.6 hPa - - - -
1788528025 37.78° C 30% 1009.1 hPa - - - -
1788527125 38.33° C 29% 1009.1 hPa - - - -
1788526224 38.33° C 28% 1009.3 hPa - - - -

* Rain since midnight (hover to see other rain measurements)
** Current wind speed in m/s (hover to see current wind gust speed)